Retour au catalogue

STARLINK-6263

ActifCommunicationsVLEO
NORAD 56549·PAYLOAD·🇺🇸 United States

Lancé May 14, 2023 depuis Cape Canaveral Space Force Station

Loading…

Prochains Passages (prochaines 24 heures)

TLE

FraisSource: CelesTrak SupGP

Époque: Sep 14, 2026, 22:10 UTC

1 56549C 23065AY  26257.92409722  .00028215  00000+0  10221-2 0  2574
2 56549  43.0038 234.8574 0001404 274.1365  78.1733 15.27560431    13

Suivez STARLINK-6263 en temps réel avec AllMySat

Download on the App Store